Location: College Park
(38.9810°N, 76.9370°W)
Time: 13:43:22
(UTC-04:00)

Vanguard 1 - Visible Passes

Search period start: 17 July 2018 00:00
Search period end: 27 July 2018 00:00
Orbit: 650 x 3832 km, 34.2° (Epoch: 16 July)

Date Brightness Start Highest point End Pass type
(mag) Time Alt. Az. Time Alt. Az. Time Alt. Az.
17 Jul 10.1 03:09:30 39° SE 03:09:30 39° SE 03:13:38 10° ESE visible
17 Jul 10.9 05:23:35 10° WSW 05:28:14 30° SSW 05:35:12 10° SE visible
18 Jul 9.8 03:29:41 43° SSE 03:29:41 43° SSE 03:34:35 10° ESE visible
18 Jul 12.1 23:05:41 10° SSW 23:05:54 11° SSW 23:05:54 11° SSW visible
19 Jul 9.9 03:49:58 38° S 03:49:58 38° S 03:55:26 10° SE visible
19 Jul 11.8 21:08:17 10° S 21:11:02 12° SSE 21:13:25 10° SE visible
19 Jul 12.1 23:26:06 10° SW 23:26:37 12° SW 23:26:37 12° SW visible
20 Jul 10.2 04:10:20 30° SSW 04:10:49 30° SSW 04:16:06 10° SE visible
20 Jul 11.4 21:26:51 10° SSW 21:32:05 18° SSE 21:34:27 15° SE visible
20 Jul 12.1 23:46:46 10° SW 23:47:15 12° SW 23:47:15 12° SW visible
21 Jul 10.6 04:30:49 22° SW 04:31:41 23° SSW 04:36:30 10° SSE visible
21 Jul 11.0 21:46:36 10° SSW 21:53:05 24° SSE 21:55:00 21° SE visible
22 Jul 12.2 00:07:37 10° WSW 00:07:47 11° WSW 00:07:47 11° WSW visible
22 Jul 11.0 04:51:23 16° SW 04:52:34 17° SSW 04:56:25 10° SSE visible
22 Jul 10.7 22:06:54 10° SW 22:14:04 31° SSE 22:15:26 28° SE visible
23 Jul 11.4 05:12:01 10° SW 05:13:29 11° SSW 05:15:12 10° S visible
23 Jul 10.3 22:27:32 10° SW 22:35:01 38° SSE 22:35:46 37° SSE visible
24 Jul 10.1 22:48:25 10° WSW 22:55:56 46° S 22:55:59 46° S visible
25 Jul 11.5 20:46:42 10° SW 20:56:13 32° SSE 21:02:06 10° E visible
25 Jul 10.1 23:09:27 10° WSW 23:16:07 49° SSW 23:16:07 49° SSW visible
26 Jul 11.1 21:07:14 10° SW 21:17:15 39° SSE 21:23:11 10° E visible
26 Jul 10.5 23:30:35 10° WSW 23:36:09 43° SW 23:36:09 43° SW visible
